Location: Heiligenberg
(48.5381°N, 7.3897°E)
Time: 22:26:28
(UTC+00:00)

Meteor 2-5 Rocket - Pass Details

Date: 26 May 2022
Orbit: 832 x 912 km, 81.2° (Epoch: 03 July)

Event Time Altitude Azimuth Distance (km) Brightness Sun altitude
Exits shadow 00:55:58 25° 173° (S) 1,708 4.8 -17.6°
Maximum altitude 00:59:24 66° 97° (E) 947 4.0 -17.4°
Drops below altitude 10° 01:05:02 10° 17° (NNE) 2,503 7.5 -17.0°
Sets 01:07:27 0° 14° (NNE) 3,433 8.5 -16.9°
